Wind_Speed
60 60 61 61 61 61 61 61 61 60 59 58 57 57 56 55 53 52 50 49 47 46 44 42 40 38 36 35 33 31 29 27 25 25 24 23 23 23 23 24 24 24 25
64 65 65 66 66 66 66 66 66 65 64 63 62 60 59 58 57 56 54 53 51 49 47 46 43 41 38 37 35 33 31 28 26 25 24 23 22 22 23 23 23 24 24
68 68 67 68 68 68 69 69 69 69 68 67 66 65 63 62 60 59 57 55 53 52 50 48 45 43 40 38 36 34 32 30 27 26 24 23 22 22 22 22 22 23 24
66 65 64 63 62 62 63 64 65 67 68 68 69 68 67 66 64 62 60 58 56 54 53 51 48 46 43 40 38 36 34 31 28 26 25 23 22 21 21 21 22 22 23
59 56 53 51 49 49 48 49 51 54 57 60 63 65 67 67 67 66 64 61 59 57 54 53 51 48 46 42 40 37 35 32 29 27 25 23 22 21 21 21 21 21 21
49 46 43 42 40 38 37 36 36 37 40 44 48 53 58 62 65 66 65 64 62 59 57 54 52 50 48 45 41 39 36 33 30 28 26 24 22 21 20 20 20 20 20
44 42 41 39 36 34 32 30 29 29 29 30 33 37 42 48 55 61 64 64 63 62 59 56 53 50 47 45 43 40 38 34 31 29 27 24 23 21 21 21 21 20 20
43 42 41 39 36 34 33 32 32 31 30 29 28 28 30 34 39 45 52 57 60 62 61 59 56 53 50 47 45 42 39 36 32 30 28 26 24 22 21 21 21 20 20
45 44 42 41 39 38 37 36 35 34 32 31 29 29 28 28 31 34 38 43 49 53 57 59 58 55 53 50 46 42 39 36 33 31 29 27 24 23 22 21 21 21 21
46 45 44 42 41 40 39 39 37 36 34 33 31 30 28 28 28 30 32 35 39 44 49 53 55 55 54 51 48 44 40 37 34 31 30 27 24 23 22 22 21 21 21
46 43 42 42 42 41 39 38 37 36 35 33 31 29 27 26 26 26 28 30 33 38 42 47 50 52 52 50 48 45 41 38 35 32 30 28 25 23 23 22 22 22 22
44 42 41 40 41 40 39 38 37 36 34 33 31 29 27 26 24 24 25 27 30 33 37 41 46 49 50 49 47 44 42 38 35 33 31 28 26 24 24 23 23 22 22
42 40 38 37 37 37 37 37 36 35 33 31 30 28 27 25 24 23 22 24 27 30 35 38 43 46 47 46 45 44 41 37 34 32 30 28 26 25 24 24 24 23 22
39 36 35 34 33 33 34 34 34 33 31 30 28 27 26 25 23 22 21 21 24 29 34 36 38 43 46 45 44 43 41 37 33 31 29 27 26 25 24 24 23 23 22
35 32 31 31 30 30 30 30 31 31 30 28 27 26 24 23 22 21 20 20 23 29 33 36 38 43 45 45 43 41 39 35 32 30 27 26 25 25 24 23 22 22 21
32 30 28 27 27 27 26 26 27 27 27 26 26 24 23 22 21 20 19 19 22 28 32 36 38 42 43 43 41 39 37 34 31 29 27 26 25 24 24 23 22 22 22
27 25 23 22 22 21 20 20 21 23 24 24 23 23 21 20 19 18 18 19 20 26 31 35 37 39 42 42 40 38 36 34 31 29 28 27 26 25 25 24 24 23 23
24 21 19 17 16 14 14 15 17 18 20 21 21 21 20 19 18 18 18 18 18 24 29 34 37 39 41 41 39 37 35 33 31 30 29 28 27 27 25 25 25 24 23
22 18 16 13 11 9 10 12 14 15 17 18 19 19 19 18 18 18 18 17 18 22 28 33 36 38 40 40 38 36 34 33 31 31 30 29 29 28 26 25 25 24 23
23 19 16 12 7 4 6 8 11 14 16 17 17 18 18 18 18 19 18 18 18 21 27 32 35 38 40 40 38 36 34 33 32 32 31 30 29 28 27 26 25 24 23
24 20 16 12 7 4 5 8 10 12 15 16 17 18 19 19 19 19 19 19 20 24 29 32 35 38 39 38 36 35 34 34 33 32 32 31 30 28 27 26 25 23 22
24 22 18 14 12 11 10 10 11 13 16 17 18 19 20 20 20 20 21 22 24 27 30 32 34 36 38 36 34 34 34 33 33 32 32 30 29 28 26 25 23 22 21
27 24 21 17 16 14 14 13 14 16 18 19 19 21 21 22 22 23 24 26 29 31 31 32 34 35 36 35 33 33 33 33 32 31 30 29 28 26 25 23 22 21 20
29 27 24 21 19 18 17 17 18 19 20 21 22 24 24 24 26 26 28 30 31 31 31 32 33 34 34 33 32 32 32 31 30 29 28 27 26 25 23 22 21 21 20
29 27 26 25 23 21 21 20 21 21 22 22 23 24 26 27 28 30 32 33 32 32 32 32 33 33 32 31 30 30 29 29 28 27 26 25 24 23 22 21 20 20 20
30 28 27 26 25 25 24 24 24 24 24 24 26 27 28 29 30 32 33 33 32 31 31 31 31 30 30 29 28 27 27 26 25 24 23 22 21 20 20 20 19 19 20
Wind_Direction
289 287 285 283 280 278 277 275 273 272 270 267 265 264 262 261 260 258 257 257 258 258 259 259 261 263 265 267 269 271 273 274 276 280 281 278 274 269 262 257 253 248 247
291 288 285 282 279 277 274 272 271 269 268 266 265 263 262 260 259 257 256 255 256 256 256 257 258 259 261 263 265 268 270 272 274 276 278 277 274 269 261 256 252 248 246
292 289 287 284 281 278 275 272 269 267 265 264 263 262 261 259 258 256 255 254 254 253 253 254 255 256 257 259 261 264 266 268 271 273 275 275 273 268 262 255 250 248 245
294 292 290 287 284 282 278 274 270 267 265 263 261 260 259 258 256 255 253 252 251 250 250 251 252 253 254 255 257 259 261 263 266 269 270 272 271 267 260 256 249 246 245
297 295 293 291 289 286 283 279 274 269 265 262 260 258 257 256 255 254 252 251 249 248 248 248 248 249 250 251 253 254 256 259 262 264 266 268 268 267 260 254 249 245 244
298 296 293 292 290 288 286 283 279 275 271 266 263 260 257 255 253 252 251 250 248 246 245 245 245 246 246 246 248 250 252 255 257 259 262 263 263 262 258 252 250 246 245
296 293 291 289 287 285 282 280 280 280 278 276 272 266 262 258 255 252 250 248 246 244 242 242 242 241 241 242 243 246 248 250 252 256 258 259 259 259 256 250 249 245 244
295 292 288 284 282 279 277 276 276 277 276 276 277 275 270 264 258 253 250 247 244 241 240 238 238 238 238 239 240 242 244 246 249 251 254 255 255 256 252 249 248 246 241
292 289 285 281 278 275 273 273 274 274 273 272 272 273 272 270 264 257 252 247 242 239 237 235 234 234 235 236 236 238 240 242 245 247 250 251 251 249 245 244 244 241 238
292 288 283 280 277 274 271 270 270 270 270 269 269 269 269 269 267 261 253 246 240 236 233 231 230 230 230 231 232 235 236 238 240 244 245 247 247 244 241 239 240 239 236
292 288 283 279 276 273 270 268 267 266 266 266 265 266 266 266 264 261 254 245 237 232 228 225 223 223 224 226 227 230 232 233 236 239 240 241 241 239 235 234 236 237 235
293 289 285 279 275 272 269 266 264 263 261 261 261 261 261 261 261 260 255 246 236 228 221 218 216 216 217 220 222 224 227 228 231 234 236 236 236 234 232 232 233 234 235
295 291 286 281 277 273 268 264 261 259 257 256 256 255 255 255 256 255 253 245 232 221 214 210 209 209 210 213 216 218 221 223 226 228 230 229 230 229 228 227 228 227 226
300 294 287 283 279 274 267 261 257 254 253 251 250 250 250 251 251 250 247 241 228 216 205 201 201 200 203 206 208 212 216 219 220 221 222 222 222 221 221 221 220 218 217
304 298 291 285 279 274 267 259 253 249 247 244 243 244 244 244 244 242 240 237 228 214 204 197 195 194 197 200 202 205 208 210 211 214 215 214 213 213 213 212 209 209 212
306 301 296 289 280 275 267 257 249 243 239 237 236 236 237 236 235 234 233 231 222 212 202 194 192 191 192 193 196 199 201 202 204 206 207 206 205 204 203 203 203 202 199
316 309 303 295 286 275 263 250 241 235 231 229 228 229 228 227 226 225 224 221 217 209 200 192 186 186 186 188 189 191 193 195 198 199 199 197 197 196 196 195 194 193 191
328 320 312 304 294 277 255 241 233 227 223 220 220 220 219 218 215 212 212 211 208 202 196 189 183 180 181 182 183 184 186 189 192 193 191 190 190 190 189 188 188 189 190
345 340 331 319 302 279 249 234 225 217 211 208 210 211 208 206 203 201 200 200 196 194 191 185 180 178 177 178 178 180 182 185 187 187 186 186 185 185 184 184 186 187 188
0 357 352 345 327 285 226 211 203 197 194 195 198 196 194 192 190 187 185 181 182 181 178 177 174 172 173 175 177 179 181 182 181 179 179 180 181 182 182 183 183 185 187
10 12 14 21 37 77 134 157 167 173 177 180 179 178 177 177 176 175 172 169 167 167 168 171 172 171 171 173 175 175 177 176 176 176 177 178 179 179 180 181 184 188 193
19 24 33 45 62 83 102 121 138 147 154 158 162 164 166 167 167 165 162 159 157 157 160 166 168 167 167 169 171 173 174 175 175 176 177 178 179 179 181 184 189 195 202
30 35 43 57 70 82 93 106 120 132 139 145 150 153 154 155 154 152 152 151 151 152 156 160 162 163 165 167 169 170 171 172 173 174 176 177 179 182 186 190 197 204 211
37 43 51 60 70 80 91 103 113 123 129 134 140 143 144 145 144 144 147 148 148 150 154 157 158 160 162 165 166 168 169 171 173 174 177 181 184 189 193 199 206 213 221
45 52 59 66 72 80 90 100 109 118 124 130 135 138 139 139 138 140 142 143 144 147 151 152 154 157 160 162 165 167 170 172 176 179 182 187 191 196 202 209 215 223 230
51 56 63 68 73 81 89 97 106 112 117 123 128 130 132 134 137 139 140 142 144 147 149 150 153 156 159 162 165 169 172 175 179 183 188 193 199 205 212 218 225 232 240
Height
5736 5732 5729 5725 5722 5721 5719 5718 5718 5719 5720 5722 5723 5725 5727 5729 5731 5734 5737 5739 5742 5744 5746 5749 5752 5754 5756 5757 5758 5759 5760 5760 5760 5758 5757 5756 5755 5755 5755 5756 5758 5759 5761
5715 5710 5707 5703 5701 5698 5697 5696 5696 5697 5698 5700 5702 5705 5707 5710 5713 5717 5720 5724 5727 5730 5733 5737 5740 5743 5746 5747 5749 5751 5751 5752 5752 5752 5750 5750 5749 5749 5749 5750 5752 5753 5755
5692 5688 5683 5678 5675 5673 5672 5671 5672 5673 5675 5677 5679 5683 5686 5690 5694 5698 5702 5707 5711 5716 5720 5724 5727 5731 5734 5737 5740 5742 5743 5744 5745 5745 5744 5743 5743 5743 5743 5744 5745 5747 5749
5671 5665 5659 5654 5650 5647 5646 5645 5645 5647 5649 5652 5655 5659 5663 5667 5672 5678 5683 5689 5694 5699 5704 5709 5714 5718 5722 5726 5729 5732 5734 5735 5737 5737 5737 5737 5737 5737 5737 5738 5740 5741 5743
5652 5646 5640 5635 5631 5627 5625 5623 5622 5622 5624 5627 5630 5634 5639 5644 5650 5655 5662 5669 5676 5682 5688 5694 5700 5705 5710 5714 5718 5722 5725 5727 5728 5730 5730 5731 5731 5731 5732 5732 5734 5735 5737
5637 5631 5626 5621 5617 5614 5611 5608 5606 5605 5606 5607 5609 5612 5616 5620 5626 5632 5640 5648 5656 5663 5671 5678 5684 5691 5696 5702 5707 5711 5715 5718 5720 5722 5723 5724 5724 5725 5726 5726 5728 5730 5732
5623 5618 5613 5609 5606 5603 5600 5598 5597 5595 5594 5594 5594 5595 5597 5600 5604 5610 5617 5625 5634 5643 5652 5661 5669 5676 5682 5689 5695 5700 5704 5708 5711 5714 5716 5717 5718 5719 5720 5721 5722 5724 5726
5610 5605 5601 5597 5594 5592 5590 5588 5587 5585 5585 5584 5583 5583 5584 5585 5587 5591 5596 5604 5613 5622 5632 5642 5652 5660 5668 5676 5683 5689 5694 5698 5702 5705 5708 5710 5711 5712 5714 5715 5716 5718 5720
5595 5591 5587 5584 5581 5579 5578 5577 5576 5575 5574 5574 5574 5574 5574 5574 5575 5577 5581 5586 5594 5602 5612 5623 5634 5644 5654 5662 5670 5677 5683 5688 5692 5696 5700 5702 5704 5705 5707 5708 5710 5712 5714
5579 5575 5571 5568 5566 5565 5564 5563 5563 5563 5563 5563 5564 5564 5564 5565 5565 5566 5569 5573 5579 5587 5596 5606 5617 5628 5638 5648 5657 5665 5672 5678 5683 5687 5691 5694 5696 5698 5700 5702 5704 5707 5709
5561 5558 5554 5552 5550 5549 5549 5549 5549 5550 5551 5552 5553 5554 5554 5555 5556 5556 5558 5562 5566 5573 5581 5590 5601 5612 5623 5634 5644 5653 5661 5668 5674 5679 5683 5686 5689 5691 5693 5696 5698 5701 5704
5544 5540 5538 5535 5534 5533 5534 5534 5535 5537 5538 5540 5542 5544 5545 5546 5547 5548 5549 5552 5556 5561 5569 5578 5588 5599 5610 5622 5632 5642 5650 5658 5664 5670 5674 5678 5681 5684 5687 5690 5692 5695 5698
5528 5524 5521 5519 5518 5517 5518 5519 5521 5523 5526 5529 5531 5534 5536 5537 5539 5540 5541 5543 5546 5552 5559 5567 5577 5587 5599 5610 5621 5631 5640 5648 5655 5661 5666 5670 5674 5677 5681 5684 5687 5690 5693
5512 5509 5506 5504 5503 5502 5503 5505 5507 5511 5514 5517 5521 5524 5526 5529 5531 5533 5534 5536 5539 5544 5551 5559 5568 5578 5589 5600 5611 5622 5631 5639 5647 5653 5658 5663 5667 5671 5674 5678 5681 5685 5688
5499 5495 5493 5491 5490 5489 5490 5491 5494 5498 5502 5507 5511 5514 5518 5521 5523 5526 5527 5530 5533 5537 5543 5551 5560 5570 5580 5592 5603 5614 5623 5632 5639 5646 5652 5657 5661 5665 5669 5673 5677 5680 5684
5487 5484 5481 5479 5478 5477 5478 5480 5483 5487 5492 5497 5502 5506 5510 5513 5516 5519 5522 5524 5527 5531 5537 5544 5553 5563 5574 5586 5597 5607 5616 5625 5633 5640 5646 5651 5655 5660 5664 5669 5673 5676 5680
5478 5475 5472 5469 5468 5467 5468 5471 5474 5479 5483 5489 5494 5499 5503 5507 5511 5514 5517 5519 5523 5527 5533 5540 5549 5558 5570 5581 5592 5602 5611 5620 5628 5635 5641 5646 5651 5656 5661 5665 5670 5674 5678
5472 5468 5465 5462 5461 5461 5462 5465 5468 5472 5477 5482 5488 5492 5497 5502 5506 5510 5513 5516 5520 5524 5530 5538 5547 5557 5568 5578 5588 5598 5607 5616 5623 5630 5637 5642 5648 5653 5658 5663 5668 5673 5677
5469 5464 5460 5458 5456 5456 5457 5460 5464 5468 5473 5478 5483 5488 5493 5498 5502 5507 5511 5515 5519 5524 5529 5537 5546 5556 5567 5577 5586 5596 5605 5613 5620 5627 5634 5640 5646 5651 5656 5661 5666 5671 5675
5469 5463 5459 5456 5454 5454 5455 5458 5461 5466 5470 5476 5481 5486 5491 5496 5501 5505 5510 5514 5519 5524 5531 5539 5548 5558 5567 5577 5586 5595 5603 5611 5618 5625 5632 5638 5644 5649 5654 5659 5664 5669 5673
5472 5466 5461 5457 5455 5455 5456 5459 5462 5466 5470 5475 5480 5485 5491 5496 5501 5506 5511 5516 5521 5527 5534 5542 5551 5560 5570 5579 5587 5595 5603 5611 5618 5624 5631 5637 5643 5648 5653 5658 5663 5667 5671
5476 5470 5466 5463 5461 5461 5461 5463 5465 5469 5473 5477 5482 5487 5492 5497 5503 5508 5513 5518 5524 5531 5538 5547 5555 5564 5573 5581 5589 5597 5604 5611 5618 5624 5631 5636 5642 5647 5652 5657 5661 5665 5669
5483 5477 5473 5470 5469 5468 5468 5469 5471 5474 5477 5481 5486 5490 5495 5500 5506 5511 5517 5523 5529 5536 5544 5552 5560 5568 5576 5584 5592 5599 5606 5612 5619 5625 5631 5636 5642 5647 5651 5656 5659 5663 5666
5492 5487 5482 5479 5477 5476 5476 5477 5479 5481 5484 5487 5491 5496 5501 5506 5511 5517 5522 5529 5535 5542 5550 5558 5565 5573 5581 5588 5594 5601 5607 5614 5620 5625 5631 5636 5641 5646 5650 5654 5657 5660 5662
5503 5498 5494 5491 5488 5487 5486 5487 5488 5490 5492 5495 5499 5503 5508 5513 5518 5524 5530 5536 5543 5550 5557 5564 5571 5578 5585 5592 5598 5604 5610 5616 5622 5627 5632 5636 5641 5645 5648 5651 5654 5656 5658
5514 5510 5506 5503 5501 5499 5498 5498 5498 5500 5502 5504 5508 5512 5516 5521 5526 5532 5538 5545 5552 5558 5564 5571 5577 5583 5590 5596 5602 5608 5613 5618 5623 5628 5632 5636 5640 5643 5646 5648 5650 5652 5653